Regional Weather Roundup
Issued by NWS

Home | Current Version | Previous Version | Graphics & Text | Print | Product List | Glossary On
Versions: 1 2 3 4 5 6 7 8 9 10 11 12 13 14 15 16 17 18 19 20 21 22 23 24 25 26 27 28 29 30 31 32 33 34 35 36 37 38 39 40 41 42 43 44 45 46 47 48 49 50
220
ASUS43 KOAX 180902
RWRNE

WEATHER ROUNDUP FOR NEBRASKA
NATIONAL WEATHER SERVICE OMAHA NE
300 AM CST SAT NOV 18 2017

NOTES: SATELLITE DATA IS BEING USED TO AUGMENT CLOUD COVER ABOVE
       12000 FEET.
       "FAIR" INDICATES FEW OR NO CLOUDS BELOW 12,000 FEET WITH NO
       SIGNIFICANT WEATHER AND/OR OBSTRUCTIONS TO VISIBILITY.


NEZ001>004-019>022-054>056-181000-
NEBRASKA PANHANDLE

CITY           SKY/WX    TMP DP  RH WIND       PRES   REMARKS
SCOTTSBLUFF    CLEAR     36  23  59 NW18G25   30.03R WCI  26
ALLIANCE       CLEAR     33  29  85 NW15      29.96R WCI  23
CHADRON        CLEAR     34  29  82 NW14G24   29.99R WCI  25
GORDON         FAIR      35  30  83 NW12G17   29.94R WCI  26
KIMBALL        CLOUDY    32  26  77 NW17G24   30.02R WCI  21
SIDNEY         CLOUDY    35  28  75 NW17      29.98R WCI  25
$$

NEZ057>060-069>072-079>082-181000-
SOUTHWEST NEBRASKA

CITY           SKY/WX    TMP DP  RH WIND       PRES   REMARKS
NORTH PLATTE   CLOUDY    38  35  89 N16G23    29.87R WCI  29
IMPERIAL       LGT RAIN  39  37  92 N20G30    29.89R WCI  29
LEXINGTON      CLOUDY    38  35  87 N14       29.83R WCI  30
MCCOOK         LGT RAIN  40  38  93 N21G30    29.84R WCI  30
OGALLALA       CLOUDY    40  36  84 NW17      29.91R WCI  31
$$

NEZ005>010-023>029-035>040-094-181000-
NORTH CENTRAL NEBRASKA

CITY           SKY/WX    TMP DP  RH WIND       PRES   REMARKS
VALENTINE      CLOUDY    38  35  89 NW7       29.89R WCI  33
AINSWORTH      CLOUDY    37  36  99 NW10      29.87R WCI  29
BROKEN BOW     LGT RAIN  37  34  89 N20G26    29.82R WCI  27
O`NEILL        CLOUDY    37  33  87 N12       29.82S WCI  29
ORD            LGT RAIN  38  35  89 NW17G29   29.80R WCI  28
THEDFORD       CLOUDY    36  34  95 NW13      29.89R WCI  27
$$

NEZ041-046>049-061>064-073>077-083>087-181000-
SOUTH CENTRAL NEBRASKA

CITY           SKY/WX    TMP DP  RH WIND       PRES   REMARKS
GRAND ISLAND   LGT RAIN  39  38  96 N23G29    29.77R WCI  28
AURORA         LGT RAIN  38  38  98 N18G25    29.73R WCI  29
HASTINGS       LGT RAIN  39  36  89 N22G32    29.76R WCI  29
HEBRON         LGT RAIN  42  40  91 N21G28    29.67F
HOLDREGE       DRIZZLE   38  37  97 N15G25    29.79R WCI  29
KEARNEY        LGT RAIN  38  36  92 N22G28    29.79R WCI  27
$$

NEZ011>018-030>034-042>045-181000-
NORTHEAST NEBRASKA

CITY           SKY/WX    TMP DP  RH WIND       PRES   REMARKS
NORFOLK        CLOUDY    38  35  89 N15G25    29.75R WCI  29
ALBION         CLOUDY    39  35  84 N13G21    29.78R WCI  32
BLAIR          HVY RAIN  40  38  94 NW24G30   29.68R WCI  30
COLUMBUS       LGT RAIN  40  37  89 NW17      29.73R WCI  31
FREMONT        LGT RAIN  39  38  96 N15G21    29.71R WCI  31
TEKAMAH        LGT RAIN  40  36  86 N20G26    29.70R WCI  30
WAYNE          CLOUDY    38  35  91 NW14G21   29.75R WCI  29
$$

NEZ050>053-065>068-078-088>093-181000-
SOUTHEAST NEBRASKA

CITY           SKY/WX    TMP DP  RH WIND       PRES   REMARKS
LINCOLN        LGT RAIN  42  39  89 N20       29.69R
OMAHA EPPLEY   RAIN      42  38  85 N16       29.65R FOG
BEATRICE       CLOUDY    44  42  92 N18G26    29.64R
FALLS CITY     CLOUDY    49  47  93 N14G20    29.53R
NEBRASKA CITY  DRIZZLE   45  44  97 N12G21    29.63R
PLATTSMOUTH    MIX PCPN  42  41  97 N13G20    29.62R
$$

NEZ044-045-051>053-067-181000-
OMAHA AREA

CITY           SKY/WX    TMP DP  RH WIND       PRES   REMARKS
OMAHA EPPLEY   RAIN      42  38  85 N16       29.65R FOG
BLAIR          HVY RAIN  40  38  94 NW24G30   29.68R WCI  30
FREMONT        LGT RAIN  39  38  96 N15G21    29.71R WCI  31
MILLARD        RAIN      43  41  92 N9        29.67R
OFFUTT AFB     HVY RAIN  42  40  91 N12G18    29.66R
PLATTSMOUTH    MIX PCPN  42  41  97 N13G20    29.62R
WAHOO          MIX PCPN  41  39  94 N21       29.68R
$$




USA.gov is the U.S. government's official web portal to all federal, state and local government web resources and services.